Weather History for KBWI - April, 2014

Change the Weather History Date:

Thursday, April 24, 2014

  Actual Average Record
Temperature  
Mean Temperature 50 °F 56 °F  
Max Temperature 64 °F 68 °F 93 °F (1960)
Min Temperature 36 °F 45 °F 32 °F (2003)
Degree Days  
Heating Degree Days 15 9  
Month to date heating degree days 300 304  
Since 1 July heating degree days 4870 4565  
Cooling Degree Days 0 1  
Month to date cooling degree days 7 6  
Year to date cooling degree days 7 7  
Moisture  
Dew Point 24 °F    
Average Humidity 45    
Maximum Humidity 70    
Minimum Humidity 19    
Precipitation  
Precipitation 0.00 in 0.10 in 1.18 in (1910)
Month to date precipitation 3.35 2.56  
Year to date precipitation 15.02 12.41  
Snow  
Snow 0.00 in 0.00 in T in (1930)
Month to date snowfall T 0.0  
Since 1 July snowfall 39.0 20.1  
Snow Depth 0.00 in    
Sea Level Pressure  
Sea Level Pressure 30.04 in    
Wind  
Wind Speed 7 mph (WNW)    
Max Wind Speed 17 mph    
Max Gust Speed 24 mph    
Visibility 10 miles    
Events      
T = Trace of Precipitation, MM = Missing Value Source: NWS Daily Summary

Daily Weather History Graph

Daily Weather History Graph

Search for Another Location

Airport or City:

Trip Planner

Search our weather history database for the weather conditions in past years. The results will help you decide how hot, cold, wet, or windy it might be!

Date:

Astronomy

Apr. 24, 2014 Rise Set
Actual Time 6:17 AM EDT 7:52 PM EDT
Civil Twilight 5:49 AM EDT 8:21 PM EDT
Nautical Twilight 5:14 AM EDT 8:55 PM EDT
Astronomical Twilight 4:38 AM EDT 9:32 PM EDT
Moon 3:24 AM EDT (4/24) 3:08 PM EDT (4/24)
Length of Visible Light 14h 32m
Length of Day
13h 35m
Waning Crescent, 24% of the Moon is Illuminated
Apr 24
Waning Crescent
Apr 29
New
May 6
First Quarter
May 14
Full
May 21
Last Quarter

Hourly Weather History & Observations

Time (EDT) Temp. Windchill Dew Point Humidity Pressure Visibility Wind Dir Wind Speed Gust Speed Precip Events Conditions
12:54 AM 42.1 °F 37.7 °F 30.0 °F 62% 29.99 in 10.0 mi West 6.9 mph - N/A   Clear
1:54 AM 41.0 °F 36.4 °F 28.9 °F 62% 29.99 in 10.0 mi West 6.9 mph - N/A   Clear
2:54 AM 39.9 °F 35.1 °F 28.9 °F 65% 29.99 in 10.0 mi West 6.9 mph - N/A   Clear
3:54 AM 39.0 °F 34.8 °F 28.0 °F 65% 30.00 in 10.0 mi West 5.8 mph - N/A   Clear
4:54 AM 37.9 °F 32.7 °F 28.0 °F 68% 30.02 in 10.0 mi West 6.9 mph - N/A   Clear
5:54 AM 39.0 °F 32.8 °F 27.0 °F 62% 30.05 in 10.0 mi West 9.2 mph - N/A   Clear
6:54 AM 39.9 °F 34.5 °F 27.0 °F 60% 30.08 in 10.0 mi WNW 8.1 mph - N/A   Partly Cloudy
7:54 AM 45.0 °F 39.7 °F 25.0 °F 46% 30.10 in 10.0 mi WNW 10.4 mph - N/A   Partly Cloudy
8:54 AM 48.0 °F - 21.9 °F 36% 30.11 in 10.0 mi WNW 13.8 mph 21.9 mph N/A   Partly Cloudy
9:54 AM 50.0 °F - 19.9 °F 31% 30.11 in 10.0 mi NNW 10.4 mph 19.6 mph N/A   Partly Cloudy
10:54 AM 53.1 °F - 19.0 °F 26% 30.10 in 10.0 mi NW 9.2 mph 19.6 mph N/A   Scattered Clouds
11:54 AM 55.0 °F - 18.0 °F 23% 30.08 in 10.0 mi North 10.4 mph 24.2 mph N/A   Scattered Clouds
12:54 PM 57.0 °F - 21.0 °F 25% 30.07 in 10.0 mi WNW 17.3 mph 23.0 mph N/A   Scattered Clouds
1:54 PM 59.0 °F - 19.9 °F 22% 30.04 in 10.0 mi NW 11.5 mph 19.6 mph N/A   Scattered Clouds
2:54 PM 61.0 °F - 23.0 °F 23% 30.02 in 10.0 mi WNW 12.7 mph - N/A   Scattered Clouds
3:54 PM 62.1 °F - 19.9 °F 20% 30.00 in 10.0 mi NW 6.9 mph 16.1 mph N/A   Scattered Clouds
4:54 PM 62.1 °F - 21.9 °F 21% 29.99 in 10.0 mi West 9.2 mph 16.1 mph N/A   Scattered Clouds
5:54 PM 63.0 °F - 19.9 °F 19% 30.00 in 10.0 mi NW 10.4 mph - N/A   Scattered Clouds
6:54 PM 62.1 °F - 19.9 °F 20% 30.00 in 10.0 mi NW 6.9 mph - N/A   Scattered Clouds
7:54 PM 60.1 °F - 19.0 °F 20% 30.01 in 10.0 mi Calm Calm - N/A   Scattered Clouds
8:54 PM 53.1 °F - 25.0 °F 34% 30.02 in 10.0 mi Calm Calm - N/A   Mostly Cloudy
9:54 PM 50.0 °F - 26.1 °F 39% 30.03 in 10.0 mi Calm Calm - N/A   Scattered Clouds
10:54 PM 48.0 °F - 28.0 °F 46% 30.03 in 10.0 mi Calm Calm - N/A   Mostly Cloudy
11:54 PM 46.9 °F - 28.9 °F 50% 30.03 in 10.0 mi Calm Calm - N/A   Mostly Cloudy